Home   Weather   Vienna   Past weeks

Flag for Austria Past Weather in Vienna, Vienna, Austria — Yesterday and Last 2 Weeks

Now
61 °F

Overcast.


Feels Like: 61 °F
Forecast: 50 / 67 °F
Wind: 3 mph from North

Location: Wien / Hohe Warte

Current Time: May 24, 2017 at 9:52:56 pm

Latest Report: May 24, 2017 at 9:00 pm


Visibility: 31 mi

Pressure: 30.06 "Hg

Humidity: 50%

Dew Point: 42 °F

Location of ViennaLocation

Past Weather in Vienna — Graph

°F

Vienna Temperature Yesterday

Maximum temperature yesterday: 77 °F (at 3:00 pm)
Minimum temperature yesterday: 59 °F (at 3:00 am)
Average temperature yesterday: 68 °F

High & Low Weather Summary for the Past Weeks

 TemperatureHumidityPressure
High81 °F (May 19, 4:00 pm)94% (May 11, 6:00 am)30.40 "Hg (May 11, 6:00 am)
Low34 °F (May 10, 5:00 am)31% (May 19, 5:00 pm)29.55 "Hg (May 12, 2:00 am)
Average63 °F63%30.01 "Hg
* Reported May 9 8:00 pm — May 24 8:00 pm, Vienna. Weather by CustomWeather, © 2017

Note: Actual official high and low records may vary slightly from our data, if they occured in-between our weather recording intervals... More about our weather records

Advertising

Vienna Weather History for the Previous 24 Hours

Scroll right to see more
 ConditionsComfort  
Time TempWeatherWind HumidityBarometerVisibility
8:00 pm
Wed, May 24
63 °FMild.3 mph47%30.04 "HgN/A
7:00 pm66 °FPartly sunny.6 mph42%30.02 "Hg34 mi
6:00 pm68 °FOvercast.6 mph40%30.01 "Hg34 mi
5:00 pm70 °FPartly sunny.6 mph39%30.00 "Hg34 mi
4:00 pm67 °FPartly sunny.5 mph44%30.00 "Hg34 mi
3:00 pm68 °FPartly sunny.6 mph60%30.01 "Hg16 mi
2:00 pm63 °FSprinkles. Overcast.2 mph83%30.02 "Hg7 mi
1:00 pm61 °FSprinkles. Low clouds.3 mph91%30.03 "Hg6 mi
12:00 pm67 °FOvercast.3 mph67%30.02 "Hg17 mi
11:00 am66 °FSprinkles. Overcast.5 mph68%30.03 "Hg16 mi
10:00 am63 °FSprinkles. Overcast.6 mph78%30.04 "Hg11 mi
9:00 am64 °FOvercast.7 mph71%30.03 "Hg17 mi
8:00 am62 °FOvercast.5 mph76%30.00 "Hg19 mi
7:00 am59 °FSprinkles. Overcast.1 mph92%29.99 "Hg16 mi
6:00 am58 °FSprinkles. Cloudy.1 mph91%30.00 "HgN/A
5:00 am60 °FFog.6 mph82%30.00 "HgN/A
4:00 am61 °FCool.5 mph68%29.97 "HgN/A
3:00 am58 °FCool.1 mph87%29.99 "HgN/A
2:00 am61 °FPassing clouds.1 mph81%30.00 "Hg17 mi
1:00 am63 °FMild.2 mph77%30.00 "HgN/A
12:00 am63 °FMild.3 mph78%30.02 "HgN/A
11:00 pm
Tue, May 23
63 °FPassing clouds.2 mph76%30.02 "Hg17 mi
10:00 pm66 °FPassing clouds.1 mph70%30.01 "Hg19 mi
9:00 pm70 °FMild.5 mph49%29.97 "HgN/A
Weather by CustomWeather, © 2017

See weather overviewHow to use our weather pages